Weather History for Szolnok, Hungary

Change the Weather History Date:

Thursday, October 4, 2012

  Actual Average (LHBP) Record (LHBP)
Temperature  
Mean Temperature 58 °F -  
Max Temperature 69 °F 65 °F 80 °F (2011)
Min Temperature 48 °F 46 °F 24 °F (2013)
Degree Days  
Heating Degree Days 6    
Growing Degree Days 8 (Base 50)    
Moisture  
Dew Point 50 °F    
Average Humidity 79    
Maximum Humidity 100    
Minimum Humidity 43    
Precipitation  
Precipitation 0.00 in - - ()
Sea Level Pressure  
Sea Level Pressure 30.03 in    
Wind  
Wind Speed 2 mph ()    
Max Wind Speed 4 mph    
Max Gust Speed -    
Visibility 1.7 miles    
Events Fog , Rain    
Averages and records for this station are not official NWS values.
T = Trace of Precipitation, MM = Missing Value Source: Averaged Metar Reports

Daily Weather History Graph

Daily Weather History Graph

Search for Another Location

Airport:

Trip Planner

Search our weather history database for the weather conditions in past years. The results will help you decide how hot, cold, wet, or windy it might be!

Date:

Astronomy

Oct. 04, 2012 Rise Set
Actual Time 6:42 AM CEST 6:12 PM CEST
Civil Twilight 6:11 AM CEST 6:42 PM CEST
Nautical Twilight 5:36 AM CEST 7:17 PM CEST
Astronomical Twilight 5:00 AM CEST 7:53 PM CEST
Moon 8:16 PM CEST (10/4) 11:00 AM CEST (10/4)
Length of Visible Light 12h 30m
Length of Day
11h 30m
Waning Gibbous, 84% of the Moon is Illuminated
Oct 4
Waning Gibbous
Oct 8
Last Quarter
Oct 15
New
Oct 22
First Quarter
Oct 29
Full

Hourly Weather History & Observations

Time (CEST) Temp. Dew Point Humidity Pressure Visibility Wind Dir Wind Speed Gust Speed Precip Events Conditions
12:15 AM 55.4 °F 48.2 °F 77% 30.06 in - Calm Calm - N/A   Clear
12:45 AM 53.6 °F 48.2 °F 82% 30.06 in - West 2.2 mph - N/A   Clear
1:15 AM 53.6 °F 48.2 °F 82% 30.06 in - West 2.2 mph - N/A   Clear
1:45 AM 51.8 °F 46.4 °F 82% 30.06 in - West 2.2 mph - N/A   Clear
2:15 AM 51.8 °F 46.4 °F 82% 30.06 in - WNW 4.5 mph - N/A   Clear
2:45 AM 53.6 °F 46.4 °F 77% 30.06 in - WNW 4.5 mph - N/A   Clear
3:15 AM 51.8 °F 46.4 °F 82% 30.04 in - West 2.2 mph - N/A   Clear
3:45 AM - - N/A% - 1.9 mi Variable 4.5 mph - N/A   Clear
4:15 AM 48.2 °F 46.4 °F 93% 30.04 in 5.0 mi WNW 4.5 mph - N/A   Clear
4:45 AM 48.2 °F 46.4 °F 93% 30.04 in 3.7 mi WNW 2.2 mph - N/A   Clear
5:15 AM 48.2 °F 44.6 °F 87% 30.04 in 3.1 mi SW 2.2 mph - N/A   Clear
5:45 AM 48.2 °F 46.4 °F 93% 30.04 in 3.1 mi West 2.2 mph - N/A   Partly Cloudy
6:15 AM 48.2 °F 46.4 °F 93% 30.04 in 3.1 mi WNW 2.2 mph - N/A   Partly Cloudy
6:45 AM 48.2 °F 44.6 °F 87% 30.04 in 2.5 mi WNW 2.2 mph - N/A   Scattered Clouds
6:57 AM 48.2 °F 44.6 °F 87% 30.06 in 2.5 mi NNW 2.2 mph - N/A Fog Fog
7:01 AM 48.2 °F 44.6 °F 87% 30.06 in 0.4 mi North 2.2 mph - N/A Fog Fog
7:09 AM 48.2 °F 44.6 °F 87% 30.06 in 0.1 mi NNW 2.2 mph - N/A Fog Fog
7:15 AM 48.2 °F 46.4 °F 93% 30.06 in 0.1 mi NNW 2.2 mph - N/A Fog Fog
7:45 AM 50.0 °F 48.2 °F 94% 30.06 in 0.1 mi North 2.2 mph - N/A Fog Fog
8:10 AM - - N/A% - 0.1 mi Variable 4.5 mph - N/A Fog Fog
8:15 AM 51.8 °F 50.0 °F 94% 30.06 in 0.1 mi NNE 2.2 mph - N/A Fog Fog
8:45 AM 51.8 °F 51.8 °F 100% 30.06 in 0.1 mi North 4.5 mph - N/A Fog Fog
9:15 AM 51.8 °F 51.8 °F 100% 30.06 in 0.1 mi NE 2.2 mph - N/A Fog Fog
9:45 AM - - N/A% - 0.9 mi Variable 4.5 mph - N/A   Scattered Clouds
10:00 AM 53.6 °F 51.8 °F 94% 30.06 in 0.2 mi WNW 2.2 mph - N/A Fog Fog
10:15 AM - - N/A% - 0.5 mi Variable 4.5 mph - N/A Fog Fog
10:45 AM 53.6 °F 53.6 °F 100% 30.06 in 0.7 mi NNW 2.2 mph - N/A   Overcast
10:53 AM 55.4 °F 53.6 °F 94% 30.06 in 0.9 mi Variable 4.5 mph - N/A   Mostly Cloudy
11:15 AM 55.4 °F 55.4 °F 100% 30.06 in 1.9 mi Variable 2.2 mph - N/A   Mostly Cloudy
11:27 AM 57.2 °F 55.4 °F 94% 30.06 in 3.1 mi Calm Calm - N/A   Scattered Clouds
11:45 AM 59.0 °F 55.4 °F 88% 30.06 in 3.7 mi Calm Calm - N/A   Scattered Clouds
12:15 PM 62.6 °F 55.4 °F 77% 30.06 in - Variable 2.2 mph - N/A   Clear
12:45 PM 64.4 °F 57.2 °F 77% 30.04 in - Variable 2.2 mph - N/A   Clear
1:15 PM 66.2 °F 55.4 °F 68% 30.04 in - Variable 2.2 mph - N/A   Clear
1:45 PM 68.0 °F 55.4 °F 64% 30.04 in - Calm Calm - N/A   Clear
2:15 PM 68.0 °F 55.4 °F 64% 30.01 in - Variable 2.2 mph - N/A   Clear
2:45 PM 68.0 °F 53.6 °F 60% 30.01 in - Variable 2.2 mph - N/A   Clear
3:15 PM 69.8 °F 50.0 °F 49% 29.98 in - Variable 2.2 mph - N/A   Clear
3:45 PM 69.8 °F 48.2 °F 46% 29.98 in - Variable 2.2 mph - N/A   Clear
4:15 PM 69.8 °F 46.4 °F 43% 29.98 in - Variable 2.2 mph - N/A   Clear
4:45 PM 69.8 °F 46.4 °F 43% 29.98 in - Variable 2.2 mph - N/A   Clear
5:15 PM 68.0 °F 46.4 °F 46% 29.98 in - Variable 2.2 mph - N/A   Clear
5:45 PM 64.4 °F 50.0 °F 59% 29.95 in - Variable 2.2 mph - N/A   Clear
6:45 PM - - N/A% - 3.1 mi Variable 4.5 mph - N/A Rain Rain Showers
7:15 PM 60.8 °F 50.0 °F 68% 29.95 in - ESE 2.2 mph - N/A   Clear
7:45 PM 59.0 °F 50.0 °F 72% 29.95 in - SE 2.2 mph - N/A   Clear
8:15 PM 57.2 °F 48.2 °F 72% 29.95 in - Calm Calm - N/A   Clear
8:45 PM 57.2 °F 50.0 °F 77% 29.95 in - ESE 2.2 mph - N/A   Clear
9:15 PM 55.4 °F 50.0 °F 82% 29.98 in - ESE 2.2 mph - N/A   Clear
9:45 PM - - N/A% - 3.1 mi Variable 4.5 mph - N/A Rain Rain Showers
10:15 PM 55.4 °F 50.0 °F 82% 29.98 in - South 2.2 mph - N/A   Clear
10:45 PM 55.4 °F 50.0 °F 82% 29.98 in - South 2.2 mph - N/A   Clear
11:15 PM 55.4 °F 48.2 °F 77% 29.98 in - South 2.2 mph - N/A   Clear
11:45 PM 55.4 °F 50.0 °F 82% 29.98 in - South 4.5 mph - N/A   Clear